DH9SB-6 Weather Reports


time (UTC)temp
C
wind
direction
speed
KPH
gust
KPH
rain 1hr
cm
rain 24hr
cm
rain mn
cm
humidity
%
barometer
mb
20260506014231 10 0.0 0.0 0.00 0.20 0.00 96
20260506013255 10 0.0 0.0 0.00 0.20 0.00 96
20260506012231 11 0.0 0.0 0.00 0.20 0.00 96
20260506011255 11 0.0 0.0 0.00 0.20 0.00 96
20260506010231 11 0.0 0.0 0.00 0.20 0.00 96
20260506005255 11 0.0 0.0 0.00 0.20 0.00 96
20260506004232 11 0.0 0.0 0.00 0.20 0.00 96
20260506003256 11 0.0 0.0 0.00 0.20 0.00 96
20260506002231 11 0.0 0.0 0.00 0.20 0.00 96
20260506001255 11 0.0 0.0 0.00 0.20 0.00 96
20260506000231 12 0.0 0.0 0.00 0.20 0.00 96
20260505235256 12 0.0 0.0 0.00 0.20 0.00 97
20260505234231 12 0.0 0.0 0.00 0.20 0.00 96
20260505233344 12 0.0 0.0 0.00 0.20 0.00 96
20260505232231 12 0.0 0.0 0.00 0.20 0.00 96
20260505231258 12 0.0 3.2 0.00 0.20 0.00 95
20260505230319 12 0.0 0.0 0.00 0.20 0.00 95
20260505225255 12 0.0 0.0 0.00 0.20 0.00 94
20260505224234 12 0.0 0.0 0.00 0.20 0.00 92
20260505223255 12 0.0 0.0 0.00 0.20 0.00 93
20260505222231 13 0.0 0.0 0.00 0.20 0.00 93
20260505221255 13 0.0 0.0 0.00 0.20 0.00 93
20260505220231 13 0.0 0.0 0.00 0.20 0.00 92
20260505215257 13 0.0 0.0 0.00 0.20 0.20 92
20260505214231 13 0.0 0.0 0.00 0.20 0.20 92
20260505213258 13 0.0 0.0 0.00 0.20 0.20 92
20260505212319 13 0.0 0.0 0.00 0.20 0.20 92
20260505211255 13 0.0 0.0 0.00 0.20 0.20 92
20260505210234 13 0.0 0.0 0.05 0.20 0.20 92
20260505205256 13 0.0 0.0 0.10 0.20 0.20 91
20260505204232 13 0.0 0.0 0.10 0.20 0.20 91
20260505203255 14 0.0 0.0 0.10 0.20 0.20 91
20260505202232 14 0.0 0.0 0.10 0.20 0.20 90
20260505201255 14 0.0 0.0 0.13 0.20 0.20 90
20260505200232 14 0.0 0.0 0.05 0.15 0.15 89
20260505195256 14 0.0 0.0 0.03 0.13 0.13 89
20260505194231 14 0.0 0.0 0.03 0.13 0.13 88
20260505193257 14 0.0 0.0 0.03 0.13 0.13 87
20260505192234 14 0.0 0.0 0.03 0.13 0.13 85
20260505191255 14 0.0 0.0 0.00 0.10 0.10 85
20260505190233 14 0.0 0.0 0.00 0.10 0.10 84
20260505185255 15 0.0 0.0 0.00 0.10 0.10 83
20260505184232 15 0.0 0.0 0.00 0.10 0.10 83
20260505183256 15 0.0 0.0 0.00 0.10 0.10 82
20260505182232 15 0.0 0.0 0.00 0.10 0.10 82
20260505181256 15 0.0 0.0 0.00 0.10 0.10 81
20260505180233 15 0.0 0.0 0.00 0.10 0.10 80
20260505175256 15 0.0 0.0 0.00 0.10 0.10 78
20260505174233 16 0.0 0.0 0.00 0.10 0.10 78
20260505173256 16 0.0 0.0 0.00 0.10 0.10 77
20260505172232 16 0.0 0.0 0.00 0.10 0.10 78
20260505171347 16 0.0 0.0 0.00 0.10 0.10 78
20260505170232 16 0.0 0.0 0.00 0.10 0.10 78
20260505165300 16 0.0 0.0 0.00 0.10 0.10 77
20260505164320 16 0.0 1.6 0.00 0.10 0.10 78
20260505163256 16 0.0 0.0 0.03 0.10 0.10 80
20260505162233 16 0.0 0.0 0.03 0.10 0.10 81
20260505161256 15 0.0 0.0 0.03 0.10 0.10 82
20260505160232 15 0.0 0.0 0.03 0.10 0.10 83
20260505153255 15 0.0 0.0 0.05 0.05 0.05 83
20260505152232 15 0.0 0.0 0.05 0.05 0.05 83
20260505151344 15 0.0 0.0 0.05 0.05 0.05 83
20260505150232 15 0.0 0.0 0.05 0.05 0.05 82
20260505140232 17 0.0 3.2 0.00 0.00 0.00 73
20260505130234 19 0.0 3.2 0.00 0.00 0.00 57
20260505124232 20 0.0 1.6 0.00 0.00 0.00 57
20260505123256 20 0.0 1.6 0.00 0.00 0.00 55
20260505122232 20 0.0 3.2 0.00 0.00 0.00 54
20260505121256 20 0.0 1.6 0.00 0.00 0.00 53
20260505120233 21 0.0 3.2 0.00 0.00 0.00 51
20260505115257 21 0.0 0.0 0.00 0.00 0.00 51
20260505114232 21 0.0 0.0 0.00 0.00 0.00 51
20260505113255 21 0.0 3.2 0.00 0.00 0.00 51
20260505112232 21 307 4.8 11.3 0.00 0.00 0.00 52
20260505111256 21 330 4.8 9.7 0.00 0.00 0.00 51
20260505110232 21 351 6.4 12.9 0.00 0.00 0.00 52
20260505101256 21 0.0 1.6 0.00 0.00 0.00 53
20260505100232 21 0.0 1.6 0.00 0.00 0.00 54
20260505095256 21 0.0 1.6 0.00 0.00 0.00 54
20260505094232 21 0.0 0.0 0.00 0.00 0.00 54
20260505093256 21 0.0 0.0 0.00 0.00 0.00 57
20260505092232 21 0.0 0.0 0.00 0.00 0.00 59
20260505091256 20 0.0 1.6 0.00 0.00 0.00 59
20260505090233 19 0.0 0.0 0.00 0.00 0.00 60
20260505085344 19 0.0 0.0 0.00 0.00 0.00 60
20260505084232 19 0.0 1.6 0.00 0.00 0.00 60
20260505083257 19 0.0 1.6 0.00 0.00 0.00 60
20260505082320 19 0.0 3.2 0.00 0.00 0.00 62
20260505081256 18 0.0 1.6 0.00 0.00 0.00 62
20260505080320 18 0.0 1.6 0.00 0.00 0.00 62
20260505075257 18 0.0 0.0 0.00 0.00 0.00 61
20260505074232 18 0.0 1.6 0.00 0.00 0.00 60
20260505073256 19 0.0 0.0 0.00 0.00 0.00 62
20260505072233 18 0.0 0.0 0.00 0.00 0.00 65
20260505071256 17 0.0 0.0 0.00 0.00 0.00 68
20260505070234 16 0.0 0.0 0.00 0.00 0.00 73
20260505065256 16 0.0 0.0 0.00 0.00 0.00 75
20260505064232 15 0.0 1.6 0.00 0.00 0.00 74
20260505063257 15 0.0 0.0 0.00 0.00 0.00 74
20260505062232 15 0.0 0.0 0.00 0.00 0.00 75
20260505061257 15 0.0 0.0 0.00 0.00 0.00 76
20260505060238 15 0.0 0.0 0.00 0.00 0.00 77
20260505055256 15 0.0 1.6 0.00 0.00 0.00 79
20260505054234 14 0.0 0.0 0.00 0.00 0.00 80
20260505053258 14 0.0 0.0 0.00 0.00 0.00 80
20260505052232 13 0.0 0.0 0.00 0.00 0.00 81
20260505051256 13 0.0 0.0 0.00 0.00 0.00 82
20260505050233 13 0.0 0.0 0.00 0.00 0.00 82
20260505041257 13 0.0 0.0 0.00 0.00 0.00 81
20260505040234 13 0.0 0.0 0.00 0.00 0.00 81
20260505035256 13 0.0 0.0 0.00 0.00 0.00 81
20260505034232 13 0.0 0.0 0.00 0.00 0.00 81
20260505033256 13 0.0 1.6 0.00 0.00 0.00 81
20260505032232 13 0.0 0.0 0.00 0.00 0.00 80
20260505031257 13 0.0 0.0 0.00 0.00 0.00 80
20260505030232 13 0.0 0.0 0.00 0.00 0.00 80
20260505025257 13 0.0 0.0 0.00 0.00 0.00 79
20260505024232 13 0.0 0.0 0.00 0.00 0.00 79
20260505023344 13 0.0 0.0 0.00 0.00 0.00 78
20260505022232 13 0.0 0.0 0.00 0.00 0.00 78
20260505021256 13 0.0 0.0 0.00 0.00 0.00 77
20260505020320 13 0.0 0.0 0.00 0.00 0.00 77
20260505015344 13 0.0 0.0 0.00 0.00 0.00 77